Gunnison, CO

2:22 PM MDT on May 23, 2017 (GMT -0600)
Gunnison County

Weather History for KGUC - January, 2013

Change the Weather History Date:

Friday, January 11, 2013

  Actual Average Record
Temperature  
Mean Temperature 11 °F -  
Max Temperature 21 °F 24 °F 46 °F (1999)
Min Temperature 0 °F 0 °F -29 °F (2011)
Degree Days  
Heating Degree Days 54    
Moisture  
Dew Point 2 °F    
Average Humidity 67    
Maximum Humidity 100    
Minimum Humidity 45    
Precipitation  
Precipitation 0.00 in - - ()
Sea Level Pressure  
Sea Level Pressure 29.60 in    
Wind  
Wind Speed 7 mph (WSW)    
Max Wind Speed 25 mph    
Max Gust Speed 36 mph    
Visibility 8 miles    
Events      
Averages and records for this station are not official NWS values.
T = Trace of Precipitation, MM = Missing Value Source: NWS Daily Summary

Daily Weather History Graph

Daily Weather History Graph

Search for Another Location

Airport or City:

Trip Planner

Search our weather history database for the weather conditions in past years. The results will help you decide how hot, cold, wet, or windy it might be!

Date:

Astronomy

Jan. 11, 2013 Rise Set
Actual Time 7:24 AM MST 5:07 PM MST
Civil Twilight 6:55 AM MST 5:36 PM MST
Nautical Twilight 6:22 AM MST 6:09 PM MST
Astronomical Twilight 5:50 AM MST 6:40 PM MST
Moon 7:00 AM MST (1/11) 5:27 PM MST (1/11)
Length of Visible Light 10h 40m
Length of Day
9h 42m
Waning Crescent, 0% of the Moon is Illuminated
Jan 11
Waning Crescent
Jan 11
New
Jan 18
First Quarter
Jan 26
Full
Feb 3
Last Quarter

Hourly Weather History & Observations

Time (MST) Temp. Windchill Dew Point Humidity Pressure Visibility Wind Dir Wind Speed Gust Speed Precip Events Conditions
12:15 AM 1.4 °F - -2.2 °F 85% 29.61 in 10.0 mi Calm Calm - N/A   Partly Cloudy
12:35 AM 3.2 °F - -0.4 °F 85% 29.60 in 10.0 mi Calm Calm - N/A   Partly Cloudy
12:55 AM 3.2 °F - -0.4 °F 85% 29.58 in 10.0 mi Calm Calm - N/A   Mostly Cloudy
1:15 AM 3.2 °F - -2.2 °F 78% 29.57 in 10.0 mi Calm Calm - N/A   Scattered Clouds
1:35 AM 3.2 °F - 1.4 °F 92% 29.56 in 10.0 mi Calm Calm - N/A   Scattered Clouds
1:55 AM 3.2 °F - -5.8 °F 66% 29.54 in 10.0 mi Calm Calm - N/A   Overcast
2:15 AM 6.8 °F -0.1 °F 6.8 °F 100% 29.53 in 10.0 mi WNW 3.5 mph - N/A   Overcast
2:35 AM 6.8 °F -0.1 °F 1.4 °F 79% 29.51 in 8.0 mi NE 3.5 mph - N/A   Overcast
2:55 AM 6.8 °F -0.1 °F -0.4 °F 72% 29.48 in 10.0 mi North 3.5 mph - N/A   Scattered Clouds
3:15 AM 6.8 °F - 3.2 °F 85% 29.46 in 7.0 mi Calm Calm - N/A   Partly Cloudy
3:35 AM 3.2 °F -6.2 °F -7.6 °F 61% 29.45 in 10.0 mi WSW 4.6 mph - N/A   Overcast
4:15 AM 6.8 °F - -0.4 °F 72% 29.40 in 9.0 mi Calm Calm - N/A   Mostly Cloudy
4:35 AM 6.8 °F - 3.2 °F 85% 29.39 in 10.0 mi Calm Calm - N/A   Overcast
4:55 AM 8.6 °F -2.6 °F 3.2 °F 79% 29.40 in 10.0 mi WSW 6.9 mph - N/A   Overcast
5:15 AM 10.4 °F -1.5 °F 8.6 °F 92% 29.42 in 0.8 mi WSW 8.1 mph - N/A   Overcast
5:35 AM 10.4 °F 0.8 °F 8.6 °F 92% 29.42 in 2.5 mi East 5.8 mph - N/A   Overcast
5:55 AM 17.6 °F 12.3 °F 14.0 °F 86% 29.42 in 9.0 mi South 3.5 mph - N/A   Overcast
6:15 AM 21.2 °F 14.9 °F 14.0 °F 74% 29.42 in 3.0 mi SW 4.6 mph - N/A   Overcast
6:35 AM 17.6 °F - 6.8 °F 63% 29.45 in 10.0 mi Calm Calm - N/A   Overcast
6:55 AM 21.2 °F 10.1 °F 19.4 °F 93% 29.45 in 10.0 mi West 10.4 mph - N/A   Overcast
7:15 AM 21.2 °F 11.7 °F 19.4 °F 93% 29.46 in 10.0 mi WSW 8.1 mph 17.3 mph N/A   Overcast
7:35 AM 19.4 °F 7.2 °F 1.4 °F 46% 29.49 in 10.0 mi WSW 11.5 mph 21.9 mph N/A   Overcast
7:55 AM 17.6 °F 2.2 °F 12.2 °F 79% 29.50 in 6.0 mi WSW 17.3 mph 23.0 mph N/A   Overcast
8:35 AM 17.6 °F 2.2 °F 6.8 °F 63% 29.52 in 8.0 mi WSW 17.3 mph 29.9 mph N/A   Overcast
8:55 AM 17.6 °F 3.7 °F 3.2 °F 53% 29.53 in 4.0 mi West 13.8 mph 28.8 mph N/A   Scattered Clouds
9:15 AM 17.6 °F 3.2 °F 1.4 °F 49% 29.54 in 7.0 mi West 15.0 mph 23.0 mph N/A   Mostly Cloudy
9:35 AM 17.6 °F 3.7 °F 1.4 °F 49% 29.55 in 10.0 mi West 13.8 mph 26.5 mph N/A   Scattered Clouds
9:55 AM 17.6 °F -0.6 °F 3.2 °F 53% 29.57 in 1.8 mi West 25.3 mph 34.5 mph N/A   Mostly Cloudy
10:15 AM 15.8 °F 0.3 °F 3.2 °F 58% 29.58 in 3.0 mi West 16.1 mph 33.4 mph N/A   Scattered Clouds
10:35 AM 15.8 °F -1.1 °F -0.4 °F 49% 29.59 in 7.0 mi West 19.6 mph 26.5 mph N/A   Mostly Cloudy
10:55 AM 15.8 °F -1.5 °F 3.2 °F 58% 29.58 in 5.0 mi WSW 20.7 mph 31.1 mph N/A   Scattered Clouds
11:15 AM 15.8 °F -1.1 °F -2.2 °F 45% 29.58 in 4.0 mi West 19.6 mph 27.6 mph N/A   Partly Cloudy
11:35 AM 17.6 °F 0.1 °F 3.2 °F 53% 29.57 in 3.0 mi West 23.0 mph 32.2 mph N/A   Partly Cloudy
11:55 AM 15.8 °F -0.6 °F -2.2 °F 45% 29.57 in 6.0 mi WSW 18.4 mph 24.2 mph N/A   Clear
12:15 PM 17.6 °F -0.6 °F -0.4 °F 45% 29.56 in 2.0 mi West 25.3 mph 35.7 mph N/A   Mostly Cloudy
12:35 PM 17.6 °F 1.7 °F 3.2 °F 53% 29.57 in 10.0 mi West 18.4 mph 24.2 mph N/A   Mostly Cloudy
1:15 PM 17.6 °F 1.3 °F 3.2 °F 53% 29.58 in 8.0 mi WSW 19.6 mph 28.8 mph N/A   Scattered Clouds
1:35 PM 17.6 °F 0.9 °F -0.4 °F 45% 29.58 in 10.0 mi West 20.7 mph 28.8 mph N/A   Partly Cloudy
1:55 PM 17.6 °F 1.3 °F -0.4 °F 45% 29.59 in 10.0 mi West 19.6 mph 25.3 mph N/A   Mostly Cloudy
2:15 PM 17.6 °F 1.3 °F -0.4 °F 45% 29.60 in 10.0 mi West 19.6 mph 24.2 mph N/A   Overcast
2:35 PM 17.6 °F 1.3 °F -0.4 °F 45% 29.61 in 10.0 mi West 19.6 mph 26.5 mph N/A   Mostly Cloudy
2:55 PM 14.0 °F -1.4 °F -2.2 °F 49% 29.62 in 3.0 mi WSW 15.0 mph 28.8 mph N/A   Mostly Cloudy
3:35 PM 14.0 °F -1.4 °F -2.2 °F 49% 29.64 in 10.0 mi WSW 15.0 mph 21.9 mph N/A   Scattered Clouds
3:55 PM 14.0 °F -3.4 °F -0.4 °F 53% 29.65 in 10.0 mi WSW 19.6 mph 25.3 mph N/A   Partly Cloudy
4:15 PM 12.2 °F -4.3 °F 1.4 °F 62% 29.66 in 1.8 mi WSW 16.1 mph 21.9 mph N/A   Mostly Cloudy
4:35 PM 12.2 °F -3.1 °F 5.0 °F 73% 29.67 in 10.0 mi SW 13.8 mph 19.6 mph N/A   Mostly Cloudy
4:55 PM 12.2 °F -1.8 °F -0.4 °F 57% 29.67 in 10.0 mi SW 11.5 mph 18.4 mph N/A   Scattered Clouds
5:35 PM 10.4 °F -2.4 °F -0.4 °F 62% 29.70 in 10.0 mi SW 9.2 mph - N/A   Partly Cloudy
6:15 PM 10.4 °F -4.8 °F 3.2 °F 73% 29.72 in 3.0 mi West 12.7 mph 19.6 mph N/A   Mostly Cloudy
6:35 PM 10.4 °F -3.3 °F 3.2 °F 73% 29.73 in 3.0 mi WSW 10.4 mph - N/A   Overcast
6:55 PM 10.4 °F 0.8 °F 6.8 °F 85% 29.74 in 10.0 mi SW 5.8 mph - N/A   Mostly Cloudy
7:15 PM 10.4 °F -3.3 °F -5.8 °F 48% 29.74 in 10.0 mi SW 10.4 mph 16.1 mph N/A   Partly Cloudy
7:35 PM 8.6 °F -5.5 °F 6.8 °F 92% 29.75 in 10.0 mi SW 10.4 mph - N/A   Clear
7:55 PM 8.6 °F -5.5 °F -7.6 °F 48% 29.76 in 10.0 mi SW 10.4 mph - N/A   Scattered Clouds
8:15 PM 10.4 °F -3.3 °F 8.6 °F 92% 29.77 in 6.0 mi SW 10.4 mph - N/A   Mostly Cloudy
8:35 PM 8.6 °F -1.3 °F -5.8 °F 52% 29.77 in 10.0 mi SW 5.8 mph - N/A   Mostly Cloudy
8:55 PM 8.6 °F -2.6 °F 3.2 °F 79% 29.77 in 10.0 mi SW 6.9 mph - N/A   Mostly Cloudy
9:15 PM 8.6 °F -5.5 °F 1.4 °F 73% 29.77 in 10.0 mi SW 10.4 mph - N/A   Scattered Clouds
9:35 PM 8.6 °F -4.7 °F -2.2 °F 62% 29.77 in 10.0 mi SW 9.2 mph - N/A   Partly Cloudy
9:55 PM 8.6 °F -2.6 °F 5.0 °F 85% 29.78 in 10.0 mi SW 6.9 mph - N/A   Partly Cloudy
10:35 PM 6.8 °F - 3.2 °F 85% 29.79 in 10.0 mi Calm Calm - N/A   Scattered Clouds
10:55 PM 3.2 °F -7.8 °F -11.2 °F 51% 29.79 in 10.0 mi North 5.8 mph - N/A   Partly Cloudy
11:35 PM 1.4 °F -6.2 °F -11.2 °F 56% 29.80 in 10.0 mi NNW 3.5 mph - N/A   Partly Cloudy
11:55 PM -0.4 °F -10.4 °F -7.6 °F 72% 29.81 in 10.0 mi North 4.6 mph - N/A   Scattered Clouds